H1 CPF 2 NER 2021 3 15 9 074 01 glonass138 H2 1805301 9138 43508 2021 3 15 0 0 0 2021 3 18 23 45 0 900 1 1 0 0 0 1 H9 10 0 59288 0.00000 0 3641715.371 10548567.630 22948943.764 10 0 59288 900.00000 0 1413216.487 12232212.335 22348756.190 10 0 59288 1800.00000 0 -609139.673 14010237.016 21314982.845 10 0 59288 2700.00000 0 -2386081.292 15825997.731 19867566.384 10 0 59288 3600.00000 0 -3889802.958 17617844.474 18034480.590 10 0 59288 4500.00000 0 -5104882.566 19321621.615 15851199.172 10 0 59288 5400.00000 0 -6028676.019 20873295.350 13360018.192 10 0 59288 6300.00000 0 -6671173.372 22211598.778 10609244.108 10 0 59288 7200.00000 0 -7054322.606 23280583.796 7652262.311 10 0 59288 8100.00000 0 -7210849.748 24031972.421 4546503.556 10 0 59288 9000.00000 0 -7182625.285 24427207.989 1352328.026 10 0 59288 9900.00000 0 -7018646.260 24439118.923 -1868151.082 10 0 59288 10800.00000 0 -6772719.977 24053123.866 -5052281.188 10 0 59288 11700.00000 0 -6500948.189 23267926.177 -8138096.811 10 0 59288 12600.00000 0 -6259119.315 22095667.436 -11065534.017 10 0 59288 13500.00000 0 -6100120.362 20561532.546 -13777608.187 10 0 59288 14400.00000 0 -6071479.413 18702822.360 -16221531.216 10 0 59288 15300.00000 0 -6213143.977 16567532.453 -18349745.489 10 0 59288 16200.00000 0 -6555590.340 14212497.568 -20120853.936 10 0 59288 17100.00000 0 -7118344.862 11701179.536 -21500427.749 10 0 59288 18000.00000 0 -7908980.441 9101191.526 -22461675.957 10 0 59288 18900.00000 0 -8922631.127 6481662.226 -22985964.060 10 0 59288 19800.00000 0 -10142045.759 3910550.041 -23063172.054 10 0 59288 20700.00000 0 -11538178.656 1452019.245 -22691885.365 10 0 59288 21600.00000 0 -13071292.704 -836013.041 -21879415.600 10 0 59288 22500.00000 0 -14692528.651 -2904057.596 -20641651.226 10 0 59288 23400.00000 0 -16345874.733 -4712871.728 -19002741.583 10 0 59288 24300.00000 0 -17970454.084 -6234841.395 -16994620.760 10 0 59288 25200.00000 0 -19503034.006 -7454870.808 -14656380.885 10 0 59288 26100.00000 0 -20880651.900 -8370744.161 -12033507.243 10 0 59288 27000.00000 0 -22043247.750 -8992946.303 -9176990.306 10 0 59288 27900.00000 0 -22936192.879 -9343951.874 -6142332.023 10 0 59288 28800.00000 0 -23512608.929 -9457014.523 -2988465.941 10 0 59288 29700.00000 0 -23735379.945 -9374508.862 223387.738 10 0 59288 30600.00000 0 -23578773.319 -9145896.369 3430909.804 10 0 59288 31500.00000 0 -23029601.777 -8825402.053 6571889.142 10 0 59288 32400.00000 0 -22087877.869 -8469500.692 9585425.895 10 0 59288 33300.00000 0 -20766933.629 -8134319.166 12413107.490 10 0 59288 34200.00000 0 -19093000.450 -7873064.628 15000134.926 10 0 59288 35100.00000 0 -17104266.581 -7733586.994 17296378.005 10 0 59288 36000.00000 0 -14849451.261 -7756178.300 19257339.685 10 0 59288 36900.00000 0 -12385954.436 -7971701.448 20845011.592 10 0 59288 37800.00000 0 -9777658.332 -8400126.997 22028604.914 10 0 59288 38700.00000 0 -7092471.288 -9049539.610 22785143.314 10 0 59288 39600.00000 0 -4399714.826 -9915656.279 23099906.939 10 0 59288 40500.00000 0 -1767461.153 -10981877.257 22966719.346 10 0 59288 41400.00000 0 740069.749 -12219868.601 22388071.853 10 0 59288 42300.00000 0 3064946.520 -13590653.215 21375082.642 10 0 59288 43200.00000 0 5157696.332 -15046166.133 19947290.836 10 0 59288 44100.00000 0 6979119.001 -16531210.435 18132288.609 10 0 59288 45000.00000 0 8501670.486 -17985733.185 15965197.429 10 0 59288 45900.00000 0 9710358.592 -19347327.102 13487997.402 10 0 59288 46800.00000 0 10603113.814 -20553853.786 10748721.572 10 0 59288 47700.00000 0 11190619.971 -21546078.619 7800529.924 10 0 59288 48600.00000 0 11495611.953 -22270206.397 4700680.388 10 0 59288 49500.00000 0 11551670.362 -22680210.430 1509416.459 10 0 59288 50400.00000 0 11401564.184 -22739855.990 -1711206.766 10 0 59288 51300.00000 0 11095211.985 -22424331.624 -4898534.933 10 0 59288 52200.00000 0 10687348.557 -21721418.177 -7990540.857 10 0 59288 53100.00000 0 10234996.627 -20632144.862 -10927040.121 10 0 59288 54000.00000 0 9794851.728 -19170903.503 -13650871.214 10 0 59288 54900.00000 0 9420692.092 -17365015.064 -16109016.258 10 0 59288 55800.00000 0 9160924.315 -15253765.956 -18253639.564 10 0 59288 56700.00000 0 9056369.688 -12886954.079 -20043023.253 10 0 59288 57600.00000 0 9138385.654 -10323005.268 -21442381.368 10 0 59288 58500.00000 0 9427402.416 -7626738.973 -22424536.564 10 0 59288 59400.00000 0 9931936.915 -4866876.524 -22970446.397 10 0 59288 60300.00000 0 10648125.987 -2113395.914 -23069569.412 10 0 59288 61200.00000 0 11559798.445 565156.666 -22720064.369 10 0 59288 62100.00000 0 12639082.956 3104286.943 -21928819.347 10 0 59288 63000.00000 0 13847526.056 5445995.862 -20711310.663 10 0 59288 63900.00000 0 15137673.040 7540945.130 -19091294.873 10 0 59288 64800.00000 0 16455045.149 9350256.049 -17100340.211 10 0 59288 65700.00000 0 17740429.749 10846868.113 -14777206.880 10 0 59288 66600.00000 0 18932387.150 12016402.276 -12167088.505 10 0 59288 67500.00000 0 19969868.557 12857494.711 -9320729.684 10 0 59288 68400.00000 0 20794835.119 13381588.972 -6293436.930 10 0 59288 69300.00000 0 21354767.882 13612197.160 -3144002.466 10 0 59288 70200.00000 0 21604963.219 13583662.877 66438.079 10 0 59288 71100.00000 0 21510517.263 13339479.587 3275591.750 10 0 59288 72000.00000 0 21047916.006 12930236.426 6421214.938 10 0 59288 72900.00000 0 20206164.355 12411278.992 9442317.211 10 0 59288 73800.00000 0 18987406.678 11840184.336 12280339.144 10 0 59288 74700.00000 0 17407012.741 11274156.874 14880281.465 10 0 59288 75600.00000 0 15493125.140 10767454.979 17191764.162 10 0 59288 76500.00000 0 13285686.619 10368956.454 19169995.661 10 0 59288 77400.00000 0 10834987.240 10119965.021 20776633.963 10 0 59288 78300.00000 0 8199791.012 10052349.767 21980523.920 10 0 59288 79200.00000 0 5445118.733 10187095.494 22758297.100 10 0 59288 80100.00000 0 2639778.004 10533324.816 23094823.254 10 0 59288 81000.00000 0 -146258.498 11087833.274 22983505.021 10 0 59288 81900.00000 0 -2844519.167 11835157.526 22426410.294 10 0 59288 82800.00000 0 -5390634.686 12748174.601 21434239.402 10 0 59288 83700.00000 0 -7726767.658 13789208.174 20026127.210 10 0 59288 84600.00000 0 -9803770.794 14911596.717 18229283.059 10 0 59288 85500.00000 0 -11582984.603 16061658.934 16078474.488 10 0 59289 0.00000 0 -13037600.343 17180975.100 13615363.614 10 0 59289 900.00000 0 -14153531.534 18208889.169 10887707.543 10 0 59289 1800.00000 0 -14929758.270 19085127.176 7948438.287 10 0 59289 2700.00000 0 -15378128.922 19752420.992 4854638.168 10 0 59289 3600.00000 0 -15522629.050 20159027.335 1666431.124 10 0 59289 4500.00000 0 -15398147.419 20261034.183 -1554188.764 10 0 59289 5400.00000 0 -15048792.031 20024356.429 -4744568.287 10 0 59289 6300.00000 0 -14525827.719 19426335.015 -7842621.431 10 0 59289 7200.00000 0 -13885323.203 18456870.571 -10788046.093 10 0 59289 8100.00000 0 -13185608.089 17119042.274 -13523506.527 10 0 59289 9000.00000 0 -12484648.386 15429184.485 -15995757.530 10 0 59289 9900.00000 0 -11837452.570 13416416.870 -18156687.544 10 0 59289 10800.00000 0 -11293618.849 11121646.875 -19964259.794 10 0 59289 11700.00000 0 -10895128.032 8596085.778 -21383332.789 10 0 59289 12600.00000 0 -10674475.807 5899340.164 -22386344.089 10 0 59289 13500.00000 0 -10653223.496 3097158.333 -22953844.261 10 0 59289 14400.00000 0 -10841028.505 258925.565 -23074871.000 10 0 59289 15300.00000 0 -11235195.110 -2544987.447 -22747156.633 10 0 59289 16200.00000 0 -11820764.183 -5245912.884 -21977165.544 10 0 59289 17100.00000 0 -12571137.632 -7779499.395 -20779961.345 10 0 59289 18000.00000 0 -13449210.750 -10088142.830 -19178906.842 10 0 59289 18900.00000 0 -14408964.351 -12123133.906 -17205203.083 10 0 59289 19800.00000 0 -15397449.209 -13846434.594 -14897276.683 10 0 59289 20700.00000 0 -16357078.886 -15232010.467 -12300027.679 10 0 59289 21600.00000 0 -17228134.096 -16266665.101 -9463952.668 10 0 59289 22500.00000 0 -17951372.940 -16950343.356 -6444160.457 10 0 59289 23400.00000 0 -18470636.866 -17295892.602 -3299299.579 10 0 59289 24300.00000 0 -18735342.553 -17328293.652 -90418.648 10 0 59289 25200.00000 0 -18702754.681 -17083395.346 3120218.148 10 0 59289 26100.00000 0 -18339943.902 -16606207.320 6270337.266 10 0 59289 27000.00000 0 -17625347.576 -15948823.951 9298860.312 10 0 59289 27900.00000 0 -16549867.551 -15168067.610 12147083.628 10 0 59289 28800.00000 0 -15117458.707 -14322950.918 14759810.255 10 0 59289 29700.00000 0 -13345183.205 -13472064.892 17086412.852 10 0 59289 30600.00000 0 -11262727.583 -12671002.723 19081807.608 10 0 59289 31500.00000 0 -8911402.134 -11969927.106 20707320.946 10 0 59289 32400.00000 0 -6342663.243 -11411382.844 21931433.107 10 0 59289 33300.00000 0 -3616218.946 -11028446.067 22730384.947 10 0 59289 34200.00000 0 -797795.131 -10843287.310 23088636.818 10 0 59289 35100.00000 0 2043346.417 -10866208.536 22999171.075 10 0 59289 36000.00000 0 4837036.712 -11095194.515 22463632.462 10 0 59289 36900.00000 0 7514867.382 -11515997.758 21492303.395 10 0 59289 37800.00000 0 10012788.295 -12102754.045 20103914.112 10 0 59289 38700.00000 0 12273528.313 -12819103.594 18325290.439 10 0 59289 39600.00000 0 14248739.343 -13619771.750 16190844.985 10 0 59289 40500.00000 0 15900775.058 -14452543.693 13741920.434 10 0 59289 41400.00000 0 17204030.462 -15260550.896 11025996.508 10 0 59289 42300.00000 0 18145786.350 -15984773.538 8095775.092 10 0 59289 43200.00000 0 18726523.375 -16566653.529 5008160.522 10 0 59289 44100.00000 0 18959692.456 -16950707.576 1823154.502 10 0 59289 45000.00000 0 18870951.184 -17087029.250 -1397312.800 10 0 59289 45900.00000 0 18496898.569 -16933573.248 -4590592.362 10 0 59289 46800.00000 0 17883361.812 -16458123.945 -7694542.422 10 0 59289 47700.00000 0 17083307.981 -15639863.511 -10648746.220 10 0 59289 48600.00000 0 16154469.571 -14470471.786 -13395696.689 10 0 59289 49500.00000 0 15156785.142 -12954709.956 -15881924.053 10 0 59289 50400.00000 0 14149764.106 -11110462.074 -18059043.423 10 0 59289 51300.00000 0 13189887.852 -8968231.535 -19884701.414 10 0 59289 52200.00000 0 12328157.658 -6570112.692 -21323402.979 10 0 59289 53100.00000 0 11607893.331 -3968280.148 -22347202.231 10 0 59289 54000.00000 0 11062875.645 -1223058.401 -22936244.001 10 0 59289 54900.00000 0 10715910.735 1599347.836 -23079145.994 10 0 59289 55800.00000 0 10577876.604 4429368.186 -22773214.542 10 0 59289 56700.00000 0 10647291.250 7196721.574 -22024490.381 10 0 59289 57600.00000 0 10910419.878 9833101.463 -20847624.060 10 0 59289 58500.00000 0 11341915.838 12274780.059 -19265583.925 10 0 59289 59400.00000 0 11905967.434 14465023.824 -17309202.758 10 0 59289 60300.00000 0 12557901.509 16356220.669 -15016572.174 10 0 59289 61200.00000 0 13246175.520 17911631.235 -12432296.855 10 0 59289 62100.00000 0 13914673.514 19106692.554 -9606623.308 10 0 59289 63000.00000 0 14505208.747 19929821.151 -6594460.225 10 0 59289 63900.00000 0 14960126.996 20382683.494 -3454309.766 10 0 59289 64800.00000 0 15224900.537 20479924.147 -247130.644 10 0 59289 65700.00000 0 15250603.184 20248364.543 2964844.736 10 0 59289 66600.00000 0 14996161.958 19725707.399 6119315.949 10 0 59289 67500.00000 0 14430290.357 18958802.436 9155119.647 10 0 59289 68400.00000 0 13533021.728 18001547.137 12013410.821 10 0 59289 69300.00000 0 12296778.008 16912511.372 14638797.536 10 0 59289 70200.00000 0 10726928.601 15752385.960 16980407.625 10 0 59289 71100.00000 0 8841815.306 14581362.214 18992867.310 10 0 59289 72000.00000 0 6672241.524 13456552.145 20637173.460 10 0 59289 72900.00000 0 4260445.960 12429557.001 21881443.456 10 0 59289 73800.00000 0 1658602.263 11544285.367 22701528.879 10 0 59289 74700.00000 0 -1073094.346 10835111.652 23081481.782 10 0 59289 75600.00000 0 -3868675.638 10325451.496 23013864.928 10 0 59289 76500.00000 0 -6658892.441 10026813.400 22499900.154 10 0 59289 77400.00000 0 -9373848.329 9938366.207 21549451.719 10 0 59289 78300.00000 0 -11945667.169 10047040.693 20180844.470 10 0 59289 79200.00000 0 -14311085.010 10328161.422 18420519.443 10 0 59289 80100.00000 0 -16413859.514 10746582.926 16302532.563 10 0 59289 81000.00000 0 -18206897.286 11258283.123 13867904.971 10 0 59289 81900.00000 0 -19654010.818 11812347.563 11163836.402 10 0 59289 82800.00000 0 -20731231.607 12353261.353 8242795.942 10 0 59289 83700.00000 0 -21427624.429 12823412.245 5161507.095 10 0 59289 84600.00000 0 -21745568.372 13165699.040 1979846.408 10 0 59289 85500.00000 0 -21700492.583 13326134.443 -1240322.786 10 0 59290 0.00000 0 -21320077.759 13256331.435 -4436358.473 10 0 59290 900.00000 0 -20642956.982 12915766.267 -7546066.109 10 0 59290 1800.00000 0 -19716971.253 12273722.106 -10508916.977 10 0 59290 2700.00000 0 -18597053.473 11310827.418 -13267235.309 10 0 59290 3600.00000 0 -17342831.176 10020124.720 -15767329.200 10 0 59290 4500.00000 0 -16016049.839 8407621.551 -17960542.626 10 0 59290 5400.00000 0 -14677926.318 6492299.779 -19804207.479 10 0 59290 6300.00000 0 -13386544.627 4305581.479 -21262476.687 10 0 59290 7200.00000 0 -12194404.337 1890272.963 -22307022.048 10 0 59290 8100.00000 0 -11146224.982 -700969.489 -22917583.394 10 0 59290 9000.00000 0 -10277098.742 -3407588.600 -23082358.749 10 0 59290 9900.00000 0 -9611068.696 -6163408.688 -22798228.353 10 0 59290 10800.00000 0 -9160191.664 -8899157.064 -22070808.785 10 0 59290 11700.00000 0 -8924124.059 -11545119.534 -20914336.638 10 0 59290 12600.00000 0 -8890247.072 -14033819.734 -19351384.545 10 0 59290 13500.00000 0 -9034324.691 -16302611.323 -17412415.449 10 0 59290 14400.00000 0 -9321665.662 -18296075.715 -15135184.134 10 0 59290 15300.00000 0 -9708739.352 -19968126.224 -12563997.904 10 0 59290 16200.00000 0 -10145176.400 -21283731.907 -9748851.024 10 0 59290 17100.00000 0 -10576068.963 -22220190.294 -6744449.867 10 0 59290 18000.00000 0 -10944472.822 -22767897.048 -3609147.987 10 0 59290 18900.00000 0 -11194005.263 -22930581.766 -403811.971 10 0 59290 19800.00000 0 -11271428.669 -22725001.386 2809359.785 10 0 59290 20700.00000 0 -11129110.590 -22180105.338 5968042.210 10 0 59290 21600.00000 0 -10727256.294 -21335708.676 9010989.239 10 0 59290 22500.00000 0 -10035819.540 -20240729.745 11879216.769 10 0 59290 23400.00000 0 -9036010.897 -18951067.038 14517140.121 10 0 59290 24300.00000 0 -7721339.856 -17527204.633 16873644.466 10 0 59290 25200.00000 0 -6098146.438 -16031646.640 18903068.104 10 0 59290 26100.00000 0 -4185599.288 -14526287.855 20566080.214 10 0 59290 27000.00000 0 -2015159.323 -13069830.204 21830436.931 10 0 59290 27900.00000 0 370470.023 -11715352.315 22671601.907 10 0 59290 28800.00000 0 2918863.628 -10508133.081 23073219.925 10 0 59290 29700.00000 0 5569805.021 -9483819.405 23027434.881 10 0 59290 30600.00000 0 8257547.790 -8667014.004 22535046.115 10 0 59290 31500.00000 0 10913315.750 -8070341.870 21605499.834 10 0 59290 32400.00000 0 13467939.710 -7694034.142 20256715.308 10 0 59290 33300.00000 0 15854522.669 -7526046.805 18514748.305 10 0 59290 34200.00000 0 18011023.640 -7542709.436 16413297.286 10 0 59290 35100.00000 0 19882653.281 -7709877.077 13993060.738 10 0 59290 36000.00000 0 21423981.841 -7984537.184 11300956.945 10 0 59290 36900.00000 0 22600671.331 -8316804.279 8389220.369 10 0 59290 37800.00000 0 23390759.254 -8652218.308 5314391.465 10 0 59290 38700.00000 0 23785439.671 -8934249.479 2136219.076 10 0 59290 39600.00000 0 23789308.319 -9106903.214 -1083503.148 10 0 59290 40500.00000 0 23420061.101 -9117314.165 -4282143.380 10 0 59290 41400.00000 0 22707658.392 -8918218.325 -7397457.176 10 0 59290 42300.00000 0 21692990.337 -8470197.203 -10368807.089 10 0 59290 43200.00000 0 20426099.635 -7743597.506 -13138351.677 10 0 59290 44100.00000 0 18964037.165 -6720043.518 -15652179.728 10 0 59290 45000.00000 0 17368441.441 -5393476.718 -17861366.680 10 0 59290 45900.00000 0 15702944.569 -3770677.286 -19722932.034 10 0 59290 46800.00000 0 14030514.495 -1871244.242 -21200678.738 10 0 59290 47700.00000 0 12410845.900 272966.007 -22265898.011 10 0 59290 48600.00000 0 10897909.620 2618920.006 -22897926.068 10 0 59290 49500.00000 0 9537763.449 5113961.959 -23084542.268 10 0 59290 50400.00000 0 8366715.846 7697778.191 -22822201.373 10 0 59290 51300.00000 0 7409918.832 10304689.764 -22116096.008 10 0 59290 52200.00000 0 6680448.048 12866177.963 -20980048.602 10 0 59290 53100.00000 0 6178907.318 15313537.607 -19436235.437 10 0 59290 54000.00000 0 5893572.853 17580548.027 -17514748.586 10 0 59290 54900.00000 0 5801069.495 19606050.834 -15253004.566 10 0 59290 55800.00000 0 5867549.111 21336327.528 -12695011.496 10 0 59290 56700.00000 0 6050320.092 22727178.455 -9890509.224 10 0 59290 57600.00000 0 6299858.070 23745617.183 -6893999.298 10 0 59290 58500.00000 0 6562112.036 24371110.375 -3763683.888 10 0 59290 59400.00000 0 6781007.686 24596312.423 -560334.455 10 0 59290 60300.00000 0 6901041.708 24427265.184 2653887.732 10 0 59290 61200.00000 0 6869857.054 23883055.535 5816636.119 10 0 59290 62100.00000 0 6640690.182 22994946.159 8866585.037 10 0 59290 63000.00000 0 6174586.828 21805016.855 11744614.264 10 0 59290 63900.00000 0 5442292.711 20364373.932 14394949.170 10 0 59290 64800.00000 0 4425739.340 18731003.128 16766234.834 10 0 59290 65700.00000 0 3119061.994 16967355.920 18812523.951 10 0 59290 66600.00000 0 1529106.620 15137770.052 20494160.053 10 0 59290 67500.00000 0 -324596.528 13305831.512 21778539.795 10 0 59290 68400.00000 0 -2410392.564 11531787.419 22640740.337 10 0 59290 69300.00000 0 -4685572.986 9870116.934 23064000.279 10 0 59290 70200.00000 0 -7097915.048 8367360.579 23040045.331 10 0 59290 71100.00000 0 -9587627.208 7060297.611 22569252.573 10 0 59290 72000.00000 0 -12089621.453 5974546.751 21660649.904 10 0 59290 72900.00000 0 -14536019.747 5123648.094 20331750.237 10 0 59290 73800.00000 0 -16858791.889 4508664.158 18608222.761 10 0 59290 74700.00000 0 -18992416.140 4118316.654 16523406.658 10 0 59290 75600.00000 0 -20876452.642 3929653.218 14117675.498 10 0 59290 76500.00000 0 -22457922.754 3909216.224 11437663.469 10 0 59290 77400.00000 0 -23693394.853 4014664.630 8535367.494 10 0 59290 78300.00000 0 -24550689.071 4196780.533 5467141.885 10 0 59290 79200.00000 0 -25010128.963 4401775.558 2292604.605 10 0 59290 80100.00000 0 -25065286.840 4573799.178 -926523.558 10 0 59290 81000.00000 0 -24723190.791 4657542.109 -4127624.034 10 0 59290 81900.00000 0 -24003984.067 4600823.499 -7248405.645 10 0 59290 82800.00000 0 -22940050.815 4357051.076 -10228125.099 10 0 59290 83700.00000 0 -21574644.843 3887448.613 -13008778.046 10 0 59290 84600.00000 0 -19960079.298 3162954.824 -15536236.535 10 0 59290 85500.00000 0 -18155553.861 2165711.891 -17761309.749 10 0 59291 0.00000 0 -16224711.362 890079.306 -19640706.688 10 0 59291 900.00000 0 -14233027.080 -656871.545 -21137881.865 10 0 59291 1800.00000 0 -12245140.687 -2455402.659 -22223746.882 10 0 59291 2700.00000 0 -10322243.647 -4473695.715 -22877234.792 10 0 59291 3600.00000 0 -8519630.677 -6668953.536 -23085706.220 10 0 59291 4500.00000 0 -6884518.388 -8988972.338 -22845189.885 10 0 59291 5400.00000 0 -5454221.325 -11374118.959 -22160453.419 10 0 59291 6300.00000 0 -4254760.878 -13759630.936 -21044903.637 10 0 59291 7200.00000 0 -3299964.019 -16078143.572 -19520318.676 10 0 59291 8100.00000 0 -2591088.031 -18262338.818 -17616417.669 10 0 59291 9000.00000 0 -2116985.268 -20247605.746 -15370276.590 10 0 59291 9900.00000 0 -1854799.299 -21974601.840 -12825601.967 10 0 59291 10800.00000 0 -1771161.419 -23391608.634 -10031876.785 10 0 59291 11700.00000 0 -1823835.620 -24456583.821 -7043395.333 10 0 59291 12600.00000 0 -1963741.297 -25138824.632 -3918206.032 10 0 59291 13500.00000 0 -2137267.259 -25420173.678 -716982.945 10 0 59291 14400.00000 0 -2288778.425 -25295717.578 2498151.962 10 0 59291 15300.00000 0 -2363208.784 -24773949.951 5664832.718 10 0 59291 16200.00000 0 -2308630.632 -23876392.780 8721656.036 10 0 59291 17100.00000 0 -2078691.405 -22636692.704 11609367.484 10 0 59291 18000.00000 0 -1634815.111 -21099230.643 14272004.301 10 0 59291 18900.00000 0 -948075.463 -19317303.278 16657973.185 10 0 59291 19800.00000 0 -661.565 -17350952.455 18721042.794 10 0 59291 20700.00000 0 1213125.769 -15264533.011 20421232.398 10 0 59291 21600.00000 0 2686389.575 -13124119.985 21725580.334 10 0 59291 22500.00000 0 4399685.397 -10994862.570 22608778.184 10 0 59291 23400.00000 0 6321602.188 -8938394.159 23053659.010 10 0 59291 24300.00000 0 8409852.741 -7010405.281 23051530.722 10 0 59291 25200.00000 0 10612829.826 -5258479.415 22602348.257 10 0 59291 26100.00000 0 12871564.967 -3720280.880 21714721.089 10 0 59291 27000.00000 0 15122010.009 -2422169.459 20405755.419 10 0 59291 27900.00000 0 17297548.093 -1378298.866 18700733.291 10 0 59291 28800.00000 0 19331630.645 -590236.342 16632633.805 10 0 59291 29700.00000 0 21160431.423 -47118.996 14241504.564 10 0 59291 30600.00000 0 22725407.352 273659.782 11573694.353 10 0 59291 31500.00000 0 23975659.130 405262.703 8680960.945 10 0 59291 32400.00000 0 24869992.512 389769.837 5619470.595 10 0 59291 33300.00000 0 25378593.213 276158.103 2448708.163 10 0 59291 34200.00000 0 25484244.226 117984.665 -769680.915 10 0 59291 35100.00000 0 25183033.490 -29127.076 -3973094.026 10 0 59291 36000.00000 0 24484521.231 -110091.594 -7099196.087 10 0 59291 36900.00000 0 23411359.193 -72943.977 -10087140.800 10 0 59291 37800.00000 0 21998377.298 128709.421 -12878763.675 10 0 59291 38700.00000 0 20291175.905 533477.677 -15419722.643 10 0 59291 39600.00000 0 18344282.983 1170304.467 -17660563.057 10 0 59291 40500.00000 0 16218953.839 2057000.632 -19557685.685 10 0 59291 41400.00000 0 13980706.163 3199253.427 -21074198.457 10 0 59291 42300.00000 0 11696694.204 4590155.321 -22180635.135 10 0 59291 43200.00000 0 9433032.356 6210273.126 -22855527.097 10 0 59291 44100.00000 0 7252180.224 8028255.307 -23085817.414 10 0 59291 45000.00000 0 5210498.406 10001952.524 -22867109.597 10 0 59291 45900.00000 0 3356076.565 12080004.844 -22203746.748 10 0 59291 46800.00000 0 1726923.660 14203829.519 -21108720.112 10 0 59291 47700.00000 0 349594.766 16309926.312 -19603409.295 10 0 59291 48600.00000 0 -761689.631 18332404.196 -17717159.649 10 0 59291 49500.00000 0 -1605396.799 20205623.969 -15486705.332 10 0 59291 50400.00000 0 -2192494.387 21866846.453 -12955449.604 10 0 59291 51300.00000 0 -2545732.353 23258775.785 -10172616.515 10 0 59291 52200.00000 0 -2698426.193 24331891.712 -7192290.691 10 0 59291 53100.00000 0 -2692794.329 25046473.622 -4072364.118 10 0 59291 54000.00000 0 -2577921.195 25374232.045 -873410.560 10 0 59291 54900.00000 0 -2407433.113 25299479.806 2342490.357 10 0 59291 55800.00000 0 -2236985.925 24819794.320 5512956.349 10 0 59291 56700.00000 0 -2121671.093 23946143.885 8576509.594 10 0 59291 57600.00000 0 -2113450.136 22702473.146 11473764.446 10 0 59291 58500.00000 0 -2258725.862 21124765.525 14148572.867 10 0 59291 59400.00000 0 -2596152.906 19259622.006 16549105.842 10 0 59291 60300.00000 0 -3154779.892 17162415.637 18628850.450 10 0 59291 61200.00000 0 -3952601.535 14895098.533 20347503.912 10 0 59291 62100.00000 0 -4995581.879 12523752.246 21671748.195 10 0 59291 63000.00000 0 -6277190.274 10115982.700 22575890.947 10 0 59291 63900.00000 0 -7778470.408 7738267.185 23042361.005 10 0 59291 64800.00000 0 -9468640.733 5453362.553 23062049.383 10 0 59291 65700.00000 0 -11306202.677 3317881.207 22634489.345 10 0 59291 66600.00000 0 -13240511.975 1380134.594 21767871.905 10 0 59291 67500.00000 0 -15213749.251 -321667.146 20478895.991 10 0 59291 68400.00000 0 -17163209.288 -1760785.240 18792455.381 10 0 59291 69300.00000 0 -19023814.777 -2922835.541 16741167.433 10 0 59291 70200.00000 0 -20730750.696 -3806148.554 14364751.631 10 0 59291 71100.00000 0 -22222109.860 -4421591.471 11709268.750 10 0 59291 72000.00000 0 -23441439.111 -4791859.817 8826234.465 10 0 59291 72900.00000 0 -24340079.212 -4950268.675 5771623.767 10 0 59291 73800.00000 0 -24879199.680 -4939094.642 2604785.049 10 0 59291 74700.00000 0 -25031442.066 -4807538.802 -612715.045 10 0 59291 75600.00000 0 -24782101.531 -4609397.420 -3818293.292 10 0 59291 76500.00000 0 -24129795.799 -4400539.692 -6949574.084 10 0 59291 77400.00000 0 -23086592.268 -4236300.362 -9945611.387 10 0 59291 78300.00000 0 -21677587.058 -4168898.864 -12748083.693 10 0 59291 79200.00000 0 -19939953.052 -4244995.622 -15302437.712 10 0 59291 80100.00000 0 -17921496.664 -4503490.306 -17558957.553 10 0 59291 81000.00000 0 -15678783.863 -4973656.494 -19473737.912 10 0 59291 81900.00000 0 -13274914.181 -5673692.782 -21009541.882 10 0 59291 82800.00000 0 -10777036.247 -6609752.489 -22136526.481 10 0 59291 83700.00000 0 -8253709.023 -7775493.707 -22832821.892 10 0 59291 84600.00000 0 -5772219.118 -9152169.305 -23084953.481 10 0 59291 85500.00000 0 -3395966.152 -10709253.518 -22888098.793 99